Location: Bacharowice
(49.9333°N, 19.5833°E)
Time: 03:56:10
(UTC+00:00)

Cosmos 2369 Rocket - Pass Details

Date: 11 May 2021
Orbit: 827 x 854 km, 71.0° (Epoch: 22 June)

Event Time Altitude Azimuth Distance (km) Brightness Sun altitude
Exits shadow 22:17:24 46° 191° (S) 1,105 2.3 -21.8°
Maximum altitude 22:19:06 77° 116° (ESE) 862 2.1 -21.8°
Drops below altitude 10° 22:24:45 10° 31° (NNE) 2,468 5.4 -21.9°
Sets 22:27:13 0° 30° (NNE) 3,411 6.3 -21.9°
